Lid_Strength_Index
17 16 18 19 16 17 18 16 17 17 19 15 16 15 14 14 16 15 14 16 15 14 13 13 12 11 11 11 11 11 11 11 11 11 10 10 10 10 10 10 9 10 10 10
22 17 18 17 16 17 16 15 16 15 15 14 13 13 14 14 13 14 15 14 16 12 11 11 12 12 12 12 11 11 11 11 10 10 10 10 10 10 10 10 10 10 10 10
19 17 17 20 18 16 22 24 17 16 16 14 14 14 13 12 13 13 14 13 14 16 15 14 14 13 13 11 11 11 12 11 10 10 10 10 10 9 9 9 9 10 10 10
18 17 22 23 22 23 19 16 15 15 14 14 14 12 11 11 13 14 17 17 17 17 17 14 13 13 12 12 13 12 12 11 11 11 11 10 10 10 10 10 10 10 9 9
18 18 18 18 17 19 19 16 14 17 16 15 13 11 13 11 14 16 15 13 12 16 18 17 16 14 14 13 13 13 12 12 12 11 11 11 10 10 10 10 10 9 9 9
16 18 20 18 15 13 14 19 14 17 15 15 16 17 17 12 9 9 8 9 9 10 19 18 14 14 14 14 14 14 13 12 11 11 11 11 11 11 10 10 10 9 9 9
16 17 15 13 12 12 17 19 13 13 17 19 18 16 14 14 12 9 8 8 8 17 18 18 16 18 15 15 15 13 12 11 11 11 11 11 11 11 11 11 10 11 10 10
18 19 22 11 12 14 13 11 12 14 17 17 15 15 14 14 16 10 15 14 19 20 22 20 21 22 19 17 13 13 12 12 12 12 11 10 11 11 10 11 12 12 12 12
14 16 11 10 9 9 9 10 11 14 15 14 12 12 11 14 17 18 20 21 23 23 24 22 23 23 21 16 14 13 13 13 13 12 11 11 11 11 11 12 12 12 12 12
14 11 11 11 9 8 8 9 10 10 9 11 14 12 13 14 16 20 21 21 23 24 21 20 21 22 21 17 14 14 14 14 13 13 11 11 11 11 12 12 12 12 12 12
12 11 10 9 9 8 9 9 9 9 10 11 13 12 14 15 16 20 21 23 25 25 24 22 22 22 21 18 16 15 14 14 13 12 13 12 11 12 11 11 10 10 10 10
16 10 9 9 7 8 9 9 9 11 12 11 14 15 14 16 16 19 21 24 24 23 26 22 23 22 21 21 17 17 15 13 14 12 13 12 12 12 9 8 8 8 8 8
9 7 7 7 8 8 9 10 10 12 15 16 16 17 16 18 19 14 21 24 25 23 23 22 22 22 21 22 22 18 16 14 13 11 12 13 12 12 13 10 9 9 8 8
10 10 11 11 11 9 10 11 12 15 18 18 17 16 18 20 19 20 21 22 23 23 22 22 23 22 20 22 24 21 18 12 12 13 13 13 12 11 12 13 13 12 9 9
10 10 10 11 11 12 13 15 16 18 19 20 21 23 24 23 23 21 21 20 20 22 22 23 23 20 20 23 23 19 18 16 14 13 12 11 11 12 12 13 13 13 12 10
13 11 11 12 16 16 18 19 18 20 21 23 24 24 24 25 23 21 21 21 21 20 20 21 21 19 19 20 19 19 18 12 10 10 10 11 12 12 13 13 13 13 13 13
15 13 14 14 14 15 20 20 20 21 22 23 24 25 24 22 20 20 20 20 20 20 20 21 20 18 17 16 18 17 16 14 10 10 11 11 12 12 13 13 14 14 13 12
11 11 13 14 14 15 16 17 18 18 20 22 23 24 23 22 23 22 21 20 18 17 17 17 17 15 13 15 17 16 15 13 11 11 11 12 13 12 13 14 15 14 13 13
15 14 14 14 15 15 16 18 19 21 22 23 22 21 22 22 21 21 20 18 17 17 17 14 12 11 13 12 11 12 12 12 12 14 12 11 13 13 13 14 15 15 14 14
14 13 13 15 15 16 19 20 22 21 21 21 20 19 19 18 18 18 18 18 18 17 14 13 11 13 13 13 10 11 11 11 12 14 16 13 13 15 15 14 15 15 15 15
17 16 16 14 16 16 16 17 18 18 18 18 18 19 19 17 16 16 16 17 16 14 11 10 12 12 12 11 10 10 10 11 14 14 16 15 15 15 15 15 17 17 16 15
15 15 15 15 16 17 17 17 17 17 18 18 17 17 17 17 16 16 15 16 14 10 11 12 12 11 10 8 10 11 13 13 14 14 14 15 15 15 15 16 17 17 16 16
15 15 15 15 16 17 17 17 18 18 18 18 17 17 18 17 17 18 18 15 13 12 12 12 10 9 9 10 13 15 15 14 14 13 14 14 14 14 15 16 15 17 17 16
15 16 15 15 16 17 18 18 18 17 17 17 16 16 17 18 18 16 15 13 12 12 12 13 11 10 9 14 16 15 15 14 14 13 13 11 13 14 15 15 16 18 18 17
16 16 15 16 17 17 18 17 17 17 18 17 17 17 17 16 16 16 16 16 14 13 15 13 11 11 14 15 15 15 15 15 14 12 13 14 14 14 14 15 16 17 16 15
16 16 16 17 17 17 18 17 18 19 18 19 19 18 16 17 17 17 16 15 16 15 17 16 15 14 13 14 14 15 14 14 13 13 12 13 13 13 14 15 16 17 18 17
16 15 17 17 17 17 17 17 19 19 19 19 19 17 17 17 18 17 16 18 17 16 15 15 15 14 13 12 13 12 13 13 12 11 13 14 14 14 14 15 15 16 17 17